FW7460 Weather Reports


Display with metric or nautical units.
time (UTC)temp
F
wind
direction
speed
MPH
gust
MPH
rain 1hr
in
rain 24hr
in
rain mn
in
humidity
%
barometer
mb
20220819044806 68 218 0.0 1.0 0.00 0.00 0.00 52 1015.8
20220819044305 68 214 0.0 1.0 0.00 0.00 0.00 52 1015.6
20220819043804 69 205 0.0 2.0 0.00 0.00 0.00 52 1015.7
20220819043302 69 223 0.0 1.0 0.00 0.00 0.00 48 1015.4
20220819042802 68 151 2.0 2.0 0.00 0.00 0.00 52 1015.5
20220819042305 69 276 2.0 2.0 0.00 0.00 0.00 51 1015.7
20220819041800 69 277 1.0 1.0 0.00 0.00 0.00 50 1015.6
20220819041300 70 67 1.0 2.0 0.00 0.00 0.00 51 1015.4
20220819040759 71 242 1.0 1.0 0.00 0.00 0.00 44 1015.4
20220819040257 70 206 1.0 1.0 0.00 0.00 0.00 51 1015.3
20220819035756 70 223 1.0 1.0 0.00 0.00 0.00 49 1015.4
20220819035254 70 230 1.0 2.0 0.00 0.00 0.00 50 1015.8
20220819034753 70 204 1.0 2.0 0.00 0.00 0.00 51 1015.4
20220819034252 71 237 1.0 1.0 0.00 0.00 0.00 48 1015.3
20220819033751 71 210 0.0 2.0 0.00 0.00 0.00 49 1015.3
20220819033250 71 234 0.0 1.0 0.00 0.00 0.00 48 1015.4
20220819032748 71 202 2.0 2.0 0.00 0.00 0.00 49 1015.3
20220819032247 71 263 0.0 2.0 0.00 0.00 0.00 46 1015.1
20220819031746 72 321 1.0 2.0 0.00 0.00 0.00 45 1015.3
20220819031247 72 230 0.0 0.0 0.00 0.00 0.00 45 1015.0
20220819030746 72 219 0.0 0.0 0.00 0.00 0.00 46 1015.0
20220819030246 73 229 0.0 1.0 0.00 0.00 0.00 43 1015.1
20220819025746 73 230 0.0 0.0 0.00 0.00 0.00 42 1014.8
20220819025245 73 223 0.0 2.0 0.00 0.00 0.00 40 1014.5
20220819024744 74 262 2.0 3.0 0.00 0.00 0.00 39 1014.5
20220819024242 74 241 2.0 2.0 0.00 0.00 0.00 40 1014.5
20220819023742 75 237 1.0 2.0 0.00 0.00 0.00 38 1014.3
20220819023242 76 213 0.0 2.0 0.00 0.00 0.00 39 1014.4
20220819022740 76 181 2.0 2.0 0.00 0.00 0.00 36 1014.3
20220819022239 76 257 0.0 2.0 0.00 0.00 0.00 36 1014.1
20220819021739 77 178 2.0 2.0 0.00 0.00 0.00 37 1014.1
20220819021237 77 217 1.0 1.0 0.00 0.00 0.00 37 1014.1
20220819020737 77 247 0.0 1.0 0.00 0.00 0.00 37 1014.2
20220819020236 77 239 1.0 1.0 0.00 0.00 0.00 36 1014.1
20220819015735 77 236 1.0 2.0 0.00 0.00 0.00 36 1014.2
20220819015235 77 231 1.0 2.0 0.00 0.00 0.00 36 1014.1
20220819014734 77 264 2.0 3.0 0.00 0.00 0.00 36 1013.8
20220819014233 77 265 2.0 3.0 0.00 0.00 0.00 39 1013.6
20220819013732 77 263 1.0 3.0 0.00 0.00 0.00 39 1013.8
20220819013231 77 253 1.0 2.0 0.00 0.00 0.00 38 1013.6
20220819012731 78 253 1.0 2.0 0.00 0.00 0.00 39 1013.8
20220819012232 78 253 1.0 2.0 0.00 0.00 0.00 38 1013.7
20220819011731 78 232 2.0 2.0 0.00 0.00 0.00 37 1013.8
20220819011230 78 258 1.0 2.0 0.00 0.00 0.00 37 1014.1
20220819010729 79 254 1.0 2.0 0.00 0.00 0.00 39 1013.8
20220819010228 80 271 1.0 2.0 0.00 0.00 0.00 38 1013.8
20220819005727 81 237 2.0 2.0 0.00 0.00 0.00 34 1014.1
20220819005226 82 318 3.0 5.0 0.00 0.00 0.00 30 1014.1
20220819004725 83 227 1.0 5.0 0.00 0.00 0.00 29 1013.8
20220819004225 83 6 4.0 5.0 0.00 0.00 0.00 28 1013.8
20220819003724 83 251 2.0 6.0 0.00 0.00 0.00 28 1014.2
20220819003223 83 42 3.0 5.0 0.00 0.00 0.00 27 1014.0
20220819002722 83 28 5.0 7.0 0.00 0.00 0.00 27 1014.0
20220819002221 84 20 5.0 7.0 0.00 0.00 0.00 26 1014.2
20220819001720 84 355 3.0 8.0 0.00 0.00 0.00 27 1014.2
20220819001218 84 337 5.0 8.0 0.00 0.00 0.00 26 1014.0
20220819000718 85 313 1.0 3.0 0.00 0.00 0.00 27 1014.2
20220819000218 85 257 2.0 2.0 0.00 0.00 0.00 29 1014.2
20220818235716 84 254 3.0 5.0 0.00 0.00 0.00 29 1014.1
20220818235215 84 337 4.0 6.0 0.00 0.00 0.00 28 1014.3
20220818234713 84 328 4.0 6.0 0.00 0.00 0.00 27 1014.4
20220818234213 84 327 7.0 10.0 0.00 0.00 0.00 28 1014.1
20220818233712 84 275 5.0 10.0 0.00 0.00 0.00 28 1014.2
20220818233212 85 336 5.0 6.0 0.00 0.00 0.00 29 1014.3
20220818232712 85 337 4.0 8.0 0.00 0.00 0.00 26 1014.3
20220818232210 86 333 4.0 6.0 0.00 0.00 0.00 26 1014.3
20220818231709 85 235 2.0 9.0 0.00 0.00 0.00 26 1014.3
20220818231208 87 256 2.0 3.0 0.00 0.00 0.00 27 1014.7
20220818230707 86 309 2.0 3.0 0.00 0.00 0.00 26 1014.5
20220818230206 86 52 3.0 3.0 0.00 0.00 0.00 25 1014.5
20220818225705 87 75 1.0 3.0 0.00 0.00 0.00 25 1014.7
20220818225204 86 242 1.0 2.0 0.00 0.00 0.00 24 1014.5
20220818224703 85 81 3.0 8.0 0.00 0.00 0.00 26 1014.8
20220818224202 84 350 3.0 5.0 0.00 0.00 0.00 28 1014.7
20220818223701 83 265 6.0 7.0 0.00 0.00 0.00 29 1014.8
20220818223200 83 271 5.0 9.0 0.00 0.00 0.00 29 1014.8
20220818222700 87 265 3.0 6.0 0.00 0.00 0.00 26 1014.9
20220818222159 86 28 4.0 6.0 0.00 0.00 0.00 25 1014.9
20220818221658 85 10 7.0 10.0 0.00 0.00 0.00 26 1014.8
20220818221156 86 50 6.0 10.0 0.00 0.00 0.00 25 1015.1
20220818220656 86 291 1.0 2.0 0.00 0.00 0.00 24 1015.1
20220818220155 84 202 1.0 5.0 0.00 0.00 0.00 24 1015.0
20220818215653 84 25 5.0 10.0 0.00 0.00 0.00 26 1015.3
20220818215152 83 314 3.0 6.0 0.00 0.00 0.00 28 1015.1
20220818214651 84 326 9.0 11.0 0.00 0.00 0.00 26 1015.4
20220818214152 84 302 3.0 3.0 0.00 0.00 0.00 25 1015.3
20220818213651 85 60 6.0 9.0 0.00 0.00 0.00 27 1015.1
20220818213149 85 26 2.0 3.0 0.00 0.00 0.00 25 1015.5
20220818212648 86 213 0.0 2.0 0.00 0.00 0.00 26 1015.3
20220818212147 85 4 4.0 9.0 0.00 0.00 0.00 26 1015.4
20220818211647 85 350 6.0 8.0 0.00 0.00 0.00 27 1015.4
20220818211147 84 356 8.0 11.0 0.00 0.00 0.00 27 1015.3
20220818210646 84 320 7.0 10.0 0.00 0.00 0.00 31 1015.5
20220818210145 85 324 7.0 10.0 0.00 0.00 0.00 28 1015.7
20220818205645 84 50 6.0 9.0 0.00 0.00 0.00 28 1015.6
20220818205144 83 329 5.0 10.0 0.00 0.00 0.00 36 1015.5
20220818204643 84 348 5.0 8.0 0.00 0.00 0.00 30 1015.6
20220818204142 83 318 7.0 9.0 0.00 0.00 0.00 30 1015.8
20220818203641 85 325 6.0 9.0 0.00 0.00 0.00 29 1015.6
20220818203140 84 327 5.0 13.0 0.00 0.00 0.00 29 1015.7
20220818202639 84 314 2.0 3.0 0.00 0.00 0.00 29 1015.7
20220818202139 83 346 5.0 9.0 0.00 0.00 0.00 30 1016.2
20220818201638 82 352 9.0 13.0 0.00 0.00 0.00 29 1016.3
20220818201137 82 330 10.0 11.0 0.00 0.00 0.00 29 1016.2
20220818200636 82 327 7.0 10.0 0.00 0.00 0.00 30 1016.2
20220818200137 82 349 7.0 11.0 0.00 0.00 0.00 29 1016.2
20220818195636 84 341 4.0 7.0 0.00 0.00 0.00 29 1016.4
20220818195136 84 266 2.0 6.0 0.00 0.00 0.00 30 1016.5
20220818194636 82 319 2.0 8.0 0.00 0.00 0.00 32 1016.7
20220818194136 82 20 5.0 10.0 0.00 0.00 0.00 29 1016.5
20220818193635 81 217 9.0 13.0 0.00 0.00 0.00 34 1016.3
20220818193133 80 270 6.0 8.0 0.00 0.00 0.00 31 1016.7
20220818192631 83 342 6.0 11.0 0.00 0.00 0.00 31 1016.8
20220818192130 82 23 8.0 11.0 0.00 0.00 0.00 29 1016.7
20220818191629 82 16 3.0 10.0 0.00 0.00 0.00 30 1016.9
20220818191129 82 34 2.0 8.0 0.00 0.00 0.00 30 1016.9
20220818190628 80 280 9.0 14.0 0.00 0.00 0.00 32 1016.8
20220818190127 80 324 5.0 9.0 0.00 0.00 0.00 33 1016.8
20220818185626 81 293 10.0 13.0 0.00 0.00 0.00 32 1016.9
20220818185125 80 20 8.0 11.0 0.00 0.00 0.00 33 1017.0
20220818184625 79 318 8.0 11.0 0.00 0.00 0.00 31 1016.5
20220818184123 80 325 10.0 10.0 0.00 0.00 0.00 30 1016.8
20220818183624 81 78 4.0 9.0 0.00 0.00 0.00 28 1017.0
20220818183123 80 346 9.0 14.0 0.00 0.00 0.00 29 1016.9
20220818182622 80 325 15.0 16.0 0.00 0.00 0.00 31 1016.9
20220818182121 80 347 10.0 14.0 0.00 0.00 0.00 30 1017.1
20220818181621 80 322 5.0 11.0 0.00 0.00 0.00 34 1017.1
20220818181119 81 350 9.0 15.0 0.00 0.00 0.00 30 1016.9
20220818180618 80 6 7.0 11.0 0.00 0.00 0.00 30 1016.9
20220818180117 79 332 8.0 10.0 0.00 0.00 0.00 31 1016.8
20220818175616 79 328 7.0 13.0 0.00 0.00 0.00 33 1017.0
20220818175115 79 6 6.0 11.0 0.00 0.00 0.00 32 1017.1
20220818174615 79 325 9.0 11.0 0.00 0.00 0.00 33 1017.1
20220818174115 78 352 4.0 13.0 0.00 0.00 0.00 35 1017.1
20220818173614 78 354 10.0 15.0 0.00 0.00 0.00 34 1017.1
20220818173113 78 347 10.0 14.0 0.00 0.00 0.00 35 1017.0
20220818172612 78 346 7.0 10.0 0.00 0.00 0.00 34 1017.0
20220818172110 78 333 10.0 14.0 0.00 0.00 0.00 34 1017.3
20220818171608 79 217 5.0 10.0 0.00 0.00 0.00 34 1017.1
20220818171108 78 319 7.0 11.0 0.00 0.00 0.00 33 1017.0
20220818170608 78 347 9.0 13.0 0.00 0.00 0.00 33 1016.9
20220818170106 79 337 13.0 15.0 0.00 0.00 0.00 30 1017.3
20220818165606 79 328 13.0 15.0 0.00 0.00 0.00 31 1016.9
20220818165105 79 257 7.0 11.0 0.00 0.00 0.00 32 1017.0
20220818164604 81 281 5.0 11.0 0.00 0.00 0.00 30 1016.7
20220818164103 80 313 2.0 5.0 0.00 0.00 0.00 27 1016.9
20220818163603 80 34 3.0 5.0 0.00 0.00 0.00 31 1016.9
20220818163102 80 205 3.0 6.0 0.00 0.00 0.00 31 1016.8
20220818162601 79 174 4.0 7.0 0.00 0.00 0.00 32 1016.7
20220818162100 78 237 5.0 10.0 0.00 0.00 0.00 33 1016.7
20220818161558 78 209 4.0 9.0 0.00 0.00 0.00 33 1016.5
20220818161057 77 224 5.0 8.0 0.00 0.00 0.00 33 1016.4
20220818160557 76 207 4.0 13.0 0.00 0.00 0.00 34 1016.4
20220818160055 76 220 10.0 11.0 0.00 0.00 0.00 33 1016.4
20220818155555 76 240 7.0 9.0 0.00 0.00 0.00 34 1016.7
20220818155054 75 206 6.0 11.0 0.00 0.00 0.00 34 1016.5
20220818154553 75 224 6.0 10.0 0.00 0.00 0.00 33 1016.9
20220818154051 75 178 8.0 13.0 0.00 0.00 0.00 34 1016.5
20220818153552 73 186 7.0 11.0 0.00 0.00 0.00 34 1016.8
20220818153051 73 205 8.0 14.0 0.00 0.00 0.00 36 1016.8
20220818152549 72 200 6.0 15.0 0.00 0.00 0.00 36 1017.0
20220818152047 72 194 15.0 21.0 0.00 0.00 0.00 36 1016.9
20220818151547 71 178 14.0 16.0 0.00 0.00 0.00 37 1016.9
20220818151046 71 181 10.0 15.0 0.00 0.00 0.00 37 1017.1
20220818150544 70 215 12.0 16.0 0.00 0.00 0.00 37 1017.1
20220818150044 70 227 10.0 16.0 0.00 0.00 0.00 38 1017.0
20220818145543 70 191 8.0 11.0 0.00 0.00 0.00 38 1016.9
20220818145043 69 196 13.0 18.0 0.00 0.00 0.00 38 1017.0
20220818144542 69 211 5.0 20.0 0.00 0.00 0.00 40 1017.1
20220818144042 68 196 10.0 15.0 0.00 0.00 0.00 40 1017.1
20220818143542 68 191 6.0 17.0 0.00 0.00 0.00 41 1017.3
20220818143041 67 178 11.0 15.0 0.00 0.00 0.00 42 1017.4
20220818142540 67 197 11.0 17.0 0.00 0.00 0.00 43 1017.5
20220818142040 66 200 12.0 16.0 0.00 0.00 0.00 43 1017.3
20220818141539 66 234 9.0 13.0 0.00 0.00 0.00 44 1017.1
20220818141037 66 220 5.0 14.0 0.00 0.00 0.00 43 1017.4
20220818140536 65 228 11.0 20.0 0.00 0.00 0.00 44 1017.4
20220818140035 65 178 13.0 23.0 0.00 0.00 0.00 44 1017.3
20220818135534 65 203 7.0 21.0 0.00 0.00 0.00 45 1017.6
20220818135033 64 189 15.0 21.0 0.00 0.00 0.00 44 1017.4
20220818134532 64 224 8.0 17.0 0.00 0.00 0.00 46 1017.5
20220818134033 64 222 11.0 20.0 0.00 0.00 0.00 45 1017.4
20220818133532 63 210 12.0 18.0 0.00 0.00 0.00 45 1017.4
20220818133031 63 206 12.0 17.0 0.00 0.00 0.00 46 1017.4
20220818132531 63 214 5.0 15.0 0.00 0.00 0.00 45 1017.5
20220818132031 64 212 10.0 13.0 0.00 0.00 0.00 44 1017.5
20220818131529 63 211 7.0 18.0 0.00 0.00 0.00 45 1017.4
20220818131028 63 235 6.0 13.0 0.00 0.00 0.00 45 1017.5
20220818130526 63 187 9.0 17.0 0.00 0.00 0.00 44 1017.4
20220818130024 63 151 13.0 20.0 0.00 0.00 0.00 44 1017.4
20220818125524 63 239 9.0 21.0 0.00 0.00 0.00 45 1017.1
20220818125024 62 240 17.0 20.0 0.00 0.00 0.00 45 1017.3
20220818124524 62 196 14.0 23.0 0.00 0.00 0.00 45 1017.1
20220818124024 62 217 10.0 17.0 0.00 0.00 0.00 46 1017.1
20220818123522 62 252 10.0 23.0 0.00 0.00 0.00 46 1017.4
20220818123021 62 225 5.0 13.0 0.00 0.00 0.00 47 1017.3
20220818122521 62 220 9.0 16.0 0.00 0.00 0.00 46 1017.3
20220818122020 62 206 7.0 11.0 0.00 0.00 0.00 46 1017.1
20220818121519 62 247 12.0 15.0 0.00 0.00 0.00 46 1017.1
20220818121017 62 188 9.0 16.0 0.00 0.00 0.00 46 1017.0
20220818120516 63 191 5.0 20.0 0.00 0.00 0.00 45 1017.0
20220818120015 63 246 14.0 20.0 0.00 0.00 0.00 45 1017.0
20220818115515 63 225 9.0 14.0 0.00 0.00 0.00 46 1017.0
20220818115014 62 244 6.0 13.0 0.00 0.00 0.00 47 1016.7
20220818114513 62 262 9.0 15.0 0.00 0.00 0.00 47 1017.1
20220818114012 62 208 4.0 8.0 0.00 0.00 0.00 48 1017.0
20220818113512 62 212 9.0 11.0 0.00 0.00 0.00 48 1017.4
20220818113011 62 248 5.0 9.0 0.00 0.00 0.00 47 1017.3
20220818112510 63 275 8.0 13.0 0.00 0.00 0.00 48 1017.1
20220818112009 63 240 9.0 11.0 0.00 0.00 0.00 47 1017.4
20220818111508 63 251 7.0 17.0 0.00 0.00 0.00 46 1017.3
20220818111006 63 211 11.0 14.0 0.00 0.00 0.00 45 1017.3
20220818110505 64 269 7.0 13.0 0.00 0.00 0.00 44 1017.3
20220818110004 63 232 9.0 11.0 0.00 0.00 0.00 45 1017.4
20220818105503 63 254 10.0 11.0 0.00 0.00 0.00 46 1017.0
20220818105002 63 290 11.0 14.0 0.00 0.00 0.00 46 1017.3
20220818104502 63 239 7.0 18.0 0.00 0.00 0.00 45 1017.0
20220818104000 64 241 6.0 23.0 0.00 0.00 0.00 46 1017.0
20220818103500 63 268 10.0 18.0 0.00 0.00 0.00 46 1017.1
20220818103000 63 216 11.0 17.0 0.00 0.00 0.00 47 1017.1
20220818102458 63 213 9.0 15.0 0.00 0.00 0.00 47 1017.1
20220818101957 63 243 13.0 20.0 0.00 0.00 0.00 47 1017.1
20220818101457 64 197 9.0 22.0 0.00 0.00 0.00 46 1016.9
20220818100956 64 203 7.0 22.0 0.00 0.00 0.00 46 1017.1
20220818100455 64 187 10.0 20.0 0.00 0.00 0.00 46 1016.9
20220818095954 64 229 5.0 18.0 0.00 0.00 0.00 45 1016.8
20220818095453 64 190 8.0 20.0 0.00 0.00 0.00 45 1017.0
20220818094951 65 205 11.0 21.0 0.00 0.00 0.00 44 1017.1
20220818094450 64 224 6.0 17.0 0.00 0.00 0.00 44 1017.0
20220818093950 64 230 10.0 17.0 0.00 0.00 0.00 45 1017.0
20220818093448 65 198 10.0 14.0 0.00 0.00 0.00 45 1017.0
20220818092948 64 223 6.0 15.0 0.00 0.00 0.00 44 1017.1
20220818092447 64 238 11.0 16.0 0.00 0.00 0.00 44 1017.1
20220818091946 63 251 7.0 16.0 0.00 0.00 0.00 45 1017.5
20220818091445 63 214 10.0 14.0 0.00 0.00 0.00 46 1017.4
20220818090943 63 233 9.0 17.0 0.00 0.00 0.00 46 1017.1
20220818090442 64 225 12.0 18.0 0.00 0.00 0.00 45 1017.3
20220818085942 64 239 11.0 25.0 0.00 0.00 0.00 44 1017.4
20220818085441 64 224 14.0 22.0 0.00 0.00 0.00 45 1017.3
20220818084940 64 226 14.0 22.0 0.00 0.00 0.00 44 1017.3
20220818084439 64 263 14.0 24.0 0.00 0.00 0.00 44 1016.9
20220818083939 64 189 15.0 25.0 0.00 0.00 0.00 44 1017.1
20220818083438 64 221 13.0 20.0 0.00 0.00 0.00 45 1017.0
20220818082936 64 160 8.0 22.0 0.00 0.00 0.00 44 1017.1
20220818082436 65 199 14.0 24.0 0.00 0.00 0.00 43 1016.9
20220818081935 64 234 16.0 23.0 0.00 0.00 0.00 44 1017.1
20220818081434 64 208 7.0 22.0 0.00 0.00 0.00 45 1017.3
20220818080933 64 228 11.0 18.0 0.00 0.00 0.00 45 1017.3
20220818080434 64 245 15.0 22.0 0.00 0.00 0.00 45 1017.3
20220818075934 64 222 10.0 14.0 0.00 0.00 0.00 45 1017.4
20220818075433 65 237 11.0 13.0 0.00 0.00 0.00 44 1017.6
20220818074928 65 239 14.0 21.0 0.00 0.00 0.00 43 1017.4
20220818074427 65 228 15.0 21.0 0.00 0.00 0.00 43 1017.6
20220818073926 65 194 15.0 20.0 0.00 0.00 0.00 44 1017.6
20220818073424 65 219 11.0 25.0 0.00 0.00 0.00 44 1017.4
20220818072923 65 228 7.0 21.0 0.00 0.00 0.00 44 1017.5
20220818072421 66 200 13.0 20.0 0.00 0.00 0.00 44 1017.6
20220818071920 65 223 10.0 18.0 0.00 0.00 0.00 44 1017.4
20220818071419 65 214 9.0 20.0 0.00 0.00 0.00 45 1017.4
20220818070918 65 242 10.0 16.0 0.00 0.00 0.00 45 1017.5
20220818070418 65 209 15.0 17.0 0.00 0.00 0.00 44 1017.5
20220818065917 65 205 12.0 18.0 0.00 0.00 0.00 45 1017.6
20220818065416 65 232 12.0 22.0 0.00 0.00 0.00 45 1017.5
20220818064915 65 141 9.0 14.0 0.00 0.00 0.00 45 1017.6
20220818064415 66 184 12.0 16.0 0.00 0.00 0.00 45 1017.7
20220818063914 67 176 6.0 14.0 0.00 0.00 0.00 42 1017.7
20220818063412 67 220 5.0 10.0 0.00 0.00 0.00 42 1018.1
20220818062910 66 233 9.0 11.0 0.00 0.00 0.00 43 1017.8
20220818062409 66 246 5.0 14.0 0.00 0.00 0.00 44 1017.7
20220818061908 66 279 10.0 15.0 0.00 0.00 0.00 44 1017.8
20220818061406 65 243 11.0 11.0 0.00 0.00 0.00 46 1017.6
20220818060905 65 233 6.0 9.0 0.00 0.00 0.00 47 1017.5
20220818060404 65 181 6.0 8.0 0.00 0.00 0.00 46 1017.8
20220818055903 65 242 11.0 14.0 0.00 0.00 0.00 46 1017.7
20220818055402 65 208 9.0 13.0 0.00 0.00 0.00 46 1017.6
20220818054902 65 226 3.0 6.0 0.00 0.00 0.00 47 1017.6
20220818054401 64 237 5.0 8.0 0.00 0.00 0.00 47 1017.6
20220818053859 62 202 2.0 5.0 0.00 0.00 0.00 55 1017.6
20220818053358 62 159 3.0 3.0 0.00 0.00 0.00 58 1017.6
20220818052858 61 145 1.0 1.0 0.00 0.00 0.00 57 1017.8
20220818052358 61 181 1.0 1.0 0.00 0.00 0.00 60 1017.7
20220818051857 62 228 0.0 2.0 0.00 0.00 0.00 60 1018.0
20220818051357 61 289 2.0 2.0 0.00 0.00 0.00 62 1017.8
20220818050856 62 240 0.0 1.0 0.00 0.00 0.00 59 1018.0
20220818050355 62 217 0.0 2.0 0.00 0.00 0.00 58 1017.6
20220818045855 62 233 0.0 1.0 0.00 0.00 0.00 56 1017.8
20220818045353 63 220 1.0 2.0 0.00 0.00 0.00 56 1018.0
20220818044853 62 266 1.0 1.0 0.00 0.00 0.00 53 1018.0